Location: Boissi�res
(45.2500°N, 2.3667°E)
Time: 20:42:12
(UTC+00:00)

Cosmos 2341 Rocket - Pass Details

Date: 03 March 2021
Orbit: 968 x 1005 km, 82.9° (Epoch: 17 April)

Event Time Altitude Azimuth Distance (km) Brightness Sun altitude
Rises 18:28:47 0° 162° (SSE) 3,699 6.8 -9.3°
Reaches altitude 10° 18:31:27 10° 154° (SSE) 2,749 6.1 -9.7°
Maximum altitude 18:37:13 39° 88° (E) 1,444 4.4 -10.8°
Drops below altitude 10° 18:42:57 10° 22° (NNE) 2,743 6.2 -11.8°
Sets 18:45:36 0° 15° (NNE) 3,690 6.9 -12.2°
